Location: Newark
(25.4297°S, 49.2719°W)
Time: 08:41:52
(UTC+00:00)

Vanguard 1 Rocket - Pass Details

Date: 28 November 2019
Orbit: 650 x 4226 km, 34.3° (Epoch: 07 December)

Event Time Altitude Azimuth Distance (km) Brightness Sun altitude
Rises 15:11:49 0° 290° (WNW) 5,376 11.4 85.6°
Reaches altitude 10° 15:14:38 10° 289° (WNW) 4,730 11.3 85.3°
Maximum altitude 15:29:46 81° 201° (SSW) 3,379 12.5 83.0°
Drops below altitude 10° 15:55:53 10° 112° (ESE) 7,444 12.0 77.6°
Sets 16:01:49 0° 110° (ESE) 8,434 12.2 76.3°
